Hourly Weather Kanye

Today, 12 August, Wednesday

Time Temperature Precipitation Wind Pressure Humidity
00:00 +12°C° 0 mm 1 mps 651 mmHg 29%
01:00 +11°C° 0 mm 1 mps 651 mmHg 35%
02:00 +9°C° 0 mm 1 mps 650 mmHg 42%
03:00 +9°C° 0 mm 1 mps 650 mmHg 45%
04:00 +8°C° 0 mm 1 mps 650 mmHg 47%
05:00 +8°C° 0 mm 1 mps 650 mmHg 50%
06:00 +10°C° 0 mm 1 mps 651 mmHg 43%
07:00 +11°C° 0 mm 1 mps 652 mmHg 36%
08:00 +13°C° 0 mm 1 mps 653 mmHg 29%
09:00 +18°C° 0 mm 1 mps 654 mmHg 23%
10:00 +21°C° 0 mm 1 mps 655 mmHg 17%
11:00 +25°C° 0 mm 1 mps 656 mmHg 11%
12:00 +26°C° 0 mm 2 mps 655 mmHg 10%
13:00 +27°C° 0 mm 2 mps 654 mmHg 9%
14:00 +29°C° 0 mm 3 mps 654 mmHg 8%
15:00 +28°C° 0 mm 3 mps 654 mmHg 8%
16:00 +28°C° 0 mm 4 mps 653 mmHg 8%
17:00 +27°C° 0 mm 4 mps 653 mmHg 8%
18:00 +23°C° 0 mm 4 mps 653 mmHg 10%
19:00 +20°C° 0 mm 3 mps 652 mmHg 12%
20:00 +16°C° 0 mm 3 mps 651 mmHg 14%
21:00 +14°C° 0 mm 3 mps 652 mmHg 14%
22:00 +13°C° 0 mm 3 mps 652 mmHg 15%
23:00 +12°C° 0 mm 3 mps 652 mmHg 15%

Tomorrow, 13 August, Thursday

Time Temperature Precipitation Wind Pressure Humidity
00:00 +12°C° 0 mm 4 mps 652 mmHg 15%
01:00 +11°C° 0 mm 4 mps 652 mmHg 14%
02:00 +10°C° 0 mm 4 mps 651 mmHg 13%
03:00 +10°C° 0 mm 4 mps 651 mmHg 13%
04:00 +8°C° 0 mm 4 mps 651 mmHg 13%
05:00 +7°C° 0 mm 4 mps 651 mmHg 13%
06:00 +8°C° 0 mm 4 mps 652 mmHg 16%
07:00 +8°C° 0 mm 5 mps 653 mmHg 18%
08:00 +9°C° 0 mm 5 mps 653 mmHg 21%
09:00 +13°C° 0 mm 5 mps 654 mmHg 17%
10:00 +17°C° 0 mm 5 mps 655 mmHg 12%
11:00 +21°C° 0 mm 5 mps 657 mmHg 8%
12:00 +23°C° 0 mm 5 mps 656 mmHg 7%
13:00 +25°C° 0 mm 5 mps 656 mmHg 6%
14:00 +26°C° 0 mm 4 mps 655 mmHg 4%
15:00 +26°C° 0 mm 4 mps 655 mmHg 5%
16:00 +25°C° 0 mm 3 mps 655 mmHg 5%
17:00 +25°C° 0 mm 3 mps 654 mmHg 6%
18:00 +20°C° 0 mm 3 mps 654 mmHg 8%
19:00 +17°C° 0 mm 3 mps 653 mmHg 11%
20:00 +13°C° 0 mm 3 mps 653 mmHg 13%
21:00 +12°C° 0 mm 3 mps 653 mmHg 16%
22:00 +11°C° 0 mm 3 mps 653 mmHg 19%
23:00 +10°C° 0 mm 3 mps 653 mmHg 22%

Day after tomorrow, 14 August, Friday

Time Temperature Precipitation Wind Pressure Humidity
00:00 +9°C° 0 mm 3 mps 653 mmHg 26%
01:00 +8°C° 0 mm 2 mps 652 mmHg 30%
02:00 +7°C° 0 mm 2 mps 652 mmHg 34%
03:00 +7°C° 0 mm 2 mps 652 mmHg 36%
04:00 +6°C° 0 mm 2 mps 652 mmHg 38%
05:00 +7°C° 0 mm 1 mps 651 mmHg 39%
06:00 +8°C° 0 mm 2 mps 652 mmHg 35%
07:00 +9°C° 0 mm 3 mps 653 mmHg 31%
08:00 +11°C° 0 mm 4 mps 654 mmHg 26%
09:00 +13°C° 0 mm 5 mps 654 mmHg 25%
10:00 +15°C° 0 mm 5 mps 655 mmHg 23%
11:00 +19°C° 0 mm 6 mps 656 mmHg 22%
12:00 +21°C° 0 mm 6 mps 655 mmHg 20%
13:00 +22°C° 0 mm 5 mps 654 mmHg 18%
14:00 +25°C° 0 mm 5 mps 654 mmHg 17%
15:00 +25°C° 0 mm 5 mps 653 mmHg 17%
16:00 +23°C° 0 mm 4 mps 653 mmHg 17%
17:00 +23°C° 0 mm 4 mps 652 mmHg 17%
18:00 +20°C° 0 mm 4 mps 652 mmHg 27%
19:00 +17°C° 0 mm 4 mps 651 mmHg 36%
20:00 +13°C° 0 mm 3 mps 650 mmHg 46%
21:00 +12°C° 0 mm 4 mps 650 mmHg 52%
22:00 +11°C° 0 mm 4 mps 650 mmHg 58%
23:00 +10°C° 0 mm 4 mps 650 mmHg 64%

15 August, Saturday

Time Temperature Precipitation Wind Pressure Humidity
00:00 +8°C° 0 mm 4 mps 649 mmHg 69%
01:00 +8°C° 0 mm 4 mps 648 mmHg 75%
02:00 +7°C° 0 mm 4 mps 648 mmHg 80%
03:00 +7°C° 0 mm 4 mps 647 mmHg 82%
04:00 +6°C° 0 mm 4 mps 647 mmHg 84%
05:00 +6°C° 0 mm 4 mps 647 mmHg 86%
06:00 +7°C° 0 mm 4 mps 647 mmHg 81%
07:00 +7°C° 0 mm 4 mps 648 mmHg 76%
08:00 +8°C° 0 mm 4 mps 649 mmHg 72%
09:00 +14°C° 0 mm 5 mps 649 mmHg 55%
10:00 +19°C° 0 mm 6 mps 650 mmHg 38%
11:00 +23°C° 0 mm 7 mps 651 mmHg 22%
12:00 +26°C° 0 mm 8 mps 651 mmHg 18%
13:00 +28°C° 0 mm 9 mps 650 mmHg 14%
14:00 +29°C° 0 mm 10 mps 649 mmHg 10%
15:00 +29°C° 0 mm 9 mps 649 mmHg 10%
16:00 +28°C° 0 mm 8 mps 648 mmHg 10%
17:00 +28°C° 0 mm 7 mps 648 mmHg 10%
18:00 +23°C° 0 mm 6 mps 647 mmHg 13%
19:00 +20°C° 0 mm 4 mps 647 mmHg 17%
20:00 +16°C° 0 mm 3 mps 646 mmHg 20%
21:00 +14°C° 0 mm 3 mps 646 mmHg 21%
22:00 +13°C° 0 mm 3 mps 646 mmHg 22%
23:00 +11°C° 0 mm 4 mps 646 mmHg 22%

16 August, Sunday

Time Temperature Precipitation Wind Pressure Humidity
00:00 +11°C° 0 mm 4 mps 646 mmHg 21%
01:00 +10°C° 0 mm 4 mps 647 mmHg 21%
02:00 +8°C° 0 mm 4 mps 647 mmHg 20%
03:00 +7°C° 0 mm 4 mps 647 mmHg 22%
04:00 +6°C° 0 mm 4 mps 647 mmHg 24%
05:00 +5°C° 0 mm 3 mps 647 mmHg 26%
06:00 +5°C° 0 mm 4 mps 648 mmHg 31%
07:00 +6°C° 0 mm 5 mps 648 mmHg 37%
08:00 +6°C° 0 mm 5 mps 649 mmHg 42%
09:00 +9°C° 0 mm 5 mps 650 mmHg 37%
10:00 +13°C° 0 mm 5 mps 651 mmHg 33%
11:00 +16°C° 0 mm 5 mps 652 mmHg 28%
12:00 +17°C° 0 mm 5 mps 652 mmHg 24%
13:00 +19°C° 0 mm 5 mps 652 mmHg 20%
14:00 +20°C° 0 mm 5 mps 651 mmHg 16%
15:00 +20°C° 0 mm 5 mps 651 mmHg 15%
16:00 +19°C° 0 mm 4 mps 651 mmHg 14%
17:00 +19°C° 0 mm 4 mps 651 mmHg 14%
18:00 +15°C° 0 mm 4 mps 650 mmHg 16%
19:00 +12°C° 0 mm 4 mps 650 mmHg 18%
20:00 +9°C° 0 mm 3 mps 650 mmHg 20%
21:00 +8°C° 0 mm 3 mps 650 mmHg 21%
22:00 +7°C° 0 mm 3 mps 650 mmHg 22%
23:00 +5°C° 0 mm 3 mps 650 mmHg 23%

17 August, Monday

Time Temperature Precipitation Wind Pressure Humidity
00:00 +5°C° 0 mm 2 mps 649 mmHg 24%
01:00 +5°C° 0 mm 2 mps 649 mmHg 25%
02:00 +4°C° 0 mm 2 mps 649 mmHg 26%
03:00 +4°C° 0 mm 2 mps 649 mmHg 27%
04:00 +4°C° 0 mm 2 mps 649 mmHg 28%
05:00 +4°C° 0 mm 2 mps 649 mmHg 28%
06:00 +5°C° 0 mm 3 mps 649 mmHg 29%
07:00 +6°C° 0 mm 4 mps 650 mmHg 30%
08:00 +7°C° 0 mm 5 mps 650 mmHg 30%
09:00 +9°C° 0 mm 6 mps 651 mmHg 39%
10:00 +12°C° 0 mm 7 mps 651 mmHg 49%
11:00 +15°C° 0 mm 8 mps 652 mmHg 58%
12:00 +16°C° 0 mm 8 mps 651 mmHg 52%
13:00 +18°C° 0 mm 7 mps 651 mmHg 46%
14:00 +21°C° 0 mm 6 mps 650 mmHg 41%
15:00 +22°C° 0 mm 6 mps 650 mmHg 36%
16:00 +22°C° 0 mm 5 mps 650 mmHg 32%
17:00 +23°C° 0 mm 4 mps 650 mmHg 28%
18:00 +20°C° 0 mm 4 mps 649 mmHg 39%
19:00 +18°C° 0 mm 4 mps 649 mmHg 50%
20:00 +14°C° 0 mm 4 mps 648 mmHg 61%
21:00 +13°C° 0 mm 4 mps 648 mmHg 69%
22:00 +12°C° 0 mm 4 mps 648 mmHg 77%
23:00 +10°C° 0 mm 4 mps 648 mmHg 85%
Show more